This is the latest recevied weather packets stored in our database for station/object DL1EEM-L4. If no packets are shown the sender has not sent any weather packets the latest 10 day(s).
| Time | Temp. | Humidity | Pressure | Rain* | Wind** | Luminosity | Snow |
|---|---|---|---|---|---|---|---|
| 1777906857 | 20° C | 50% | 1011.3 hPa | - | - | - | - |
| 1777905957 | 21.11° C | 49% | 1011.3 hPa | - | - | - | - |
| 1777905057 | 21.11° C | 50% | 1011.5 hPa | - | - | - | - |
| 1777904157 | 22.22° C | 47% | 1011.4 hPa | - | - | - | - |
| 1777903257 | 22.78° C | 46% | 1011.4 hPa | - | - | - | - |
| 1777902357 | 22.78° C | 47% | 1011.4 hPa | - | - | - | - |
| 1777901457 | 22.22° C | 48% | 1011.6 hPa | - | - | - | - |
| 1777900557 | 21.11° C | 50% | 1011.6 hPa | - | - | - | - |
| 1777899656 | 22.78° C | 47% | 1011.6 hPa | - | - | - | - |
| 1777898756 | 22.22° C | 49% | 1011.3 hPa | - | - | - | - |
| 1777897856 | 20° C | 54% | 1011.5 hPa | - | - | - | - |
| 1777896956 | 20.56° C | 53% | 1011.6 hPa | - | - | - | - |
| 1777896056 | 20° C | 56% | 1011.5 hPa | - | - | - | - |
| 1777895155 | 19.44° C | 56% | 1011.6 hPa | - | - | - | - |
| 1777894255 | 18.89° C | 58% | 1011.7 hPa | - | - | - | - |
| 1777893355 | 18.33° C | 59% | 1011.7 hPa | - | - | - | - |
| 1777892454 | 17.78° C | 61% | 1011.7 hPa | - | - | - | - |
| 1777891566 | 18.33° C | 59% | 1011.8 hPa | - | - | - | - |
| 1777890668 | 17.78° C | 58% | 1011.8 hPa | - | - | - | - |
| 1777889772 | 18.33° C | 58% | 1011.9 hPa | - | - | - | - |
| 1777888868 | 18.33° C | 57% | 1011.7 hPa | - | - | - | - |
| 1777885259 | 15.56° C | 65% | 1011.9 hPa | - | - | - | - |
| 1777884361 | 15.56° C | 65% | 1011.6 hPa | - | - | - | - |
| 1777883458 | 15.56° C | 64% | 1011.5 hPa | - | - | - | - |
| 1777882558 | 15.56° C | 65% | 1011.4 hPa | - | - | - | - |
* Rain since midnight (hover to see other rain measurements)
** Current wind speed in m/s (hover to see current wind gust speed)